FW0525 Weather Reports


Display with metric or nautical units.
time (UTC)temp
F
wind
direction
speed
MPH
gust
MPH
rain 1hr
in
rain 24hr
in
rain mn
in
humidity
%
barometer
mb
20200406133518 74 34 3.0 10.0 0.00 0.72 0.02 79 1015.8
20200406133018 74 77 3.0 8.0 0.00 0.72 0.02 80 1015.7
20200406132517 73 84 5.0 12.0 0.00 0.72 0.02 81 1015.7
20200406132018 73 83 4.0 12.0 0.00 0.72 0.02 80 1015.5
20200406131518 73 60 3.0 8.0 0.00 0.72 0.02 82 1015.5
20200406131013 72 76 4.0 12.0 0.00 0.72 0.02 83 1015.6
20200406130512 72 72 4.0 12.0 0.00 0.72 0.02 83 1015.4
20200406130014 72 89 3.0 8.0 0.00 0.72 0.02 84 1015.3
20200406125512 72 60 3.0 9.0 0.00 0.72 0.02 85 1015.2
20200406125013 71 48 3.0 9.0 0.00 0.72 0.02 84 1015.1
20200406124512 71 67 3.0 8.0 0.00 0.72 0.02 85 1015.1
20200406124014 71 108 2.0 6.0 0.00 0.72 0.02 85 1015.1
20200406123506 71 129 2.0 6.0 0.00 0.72 0.02 86 1015.1
20200406123006 71 107 2.0 6.0 0.00 0.72 0.02 87 1015.1
20200406122506 70 87 2.0 9.0 0.00 0.72 0.02 89 1014.9
20200406122006 69 78 1.0 9.0 0.00 0.72 0.02 92 1014.9
20200406121505 68 65 0.0 1.0 0.00 0.72 0.02 95 1014.9
20200406121007 68 143 0.0 0.0 0.00 0.72 0.02 95 1014.7
20200406120500 68 143 0.0 0.0 0.00 0.72 0.02 96 1014.7
20200406115958 68 143 0.0 0.0 0.00 0.72 0.02 96 1014.7
20200406115457 68 143 0.0 0.0 0.00 0.72 0.02 96 1014.5
20200406114955 67 143 0.0 0.0 0.00 0.72 0.02 96 1014.4
20200406114457 67 143 0.0 0.0 0.00 0.72 0.02 96 1014.4
20200406113955 67 143 0.0 0.0 0.00 0.72 0.02 95 1014.3
20200406113451 66 143 0.0 0.0 0.00 0.72 0.02 95 1014.2
20200406112952 66 143 0.0 0.0 0.00 0.72 0.02 95 1014.1
20200406112453 66 143 0.0 0.0 0.00 0.72 0.02 95 1014.1
20200406111951 66 143 0.0 0.0 0.00 0.72 0.02 95 1014.1
20200406111452 66 143 0.0 0.0 0.00 0.72 0.02 95 1014.0
20200406110952 66 143 0.0 0.0 0.00 0.72 0.02 95 1013.9
20200406110447 66 143 0.0 0.0 0.00 0.72 0.02 95 1013.9
20200406105948 66 143 0.0 0.0 0.00 0.72 0.02 94 1013.8
20200406105448 67 143 0.0 0.0 0.00 0.72 0.02 94 1013.8
20200406104947 67 143 0.0 0.0 0.00 0.72 0.02 94 1013.8
20200406104448 67 143 0.0 0.0 0.00 0.72 0.02 94 1013.7
20200406103948 67 143 0.0 0.0 0.00 0.72 0.02 94 1013.7
20200406103444 67 143 0.0 0.0 0.00 0.72 0.02 94 1013.5
20200406102944 67 143 0.0 0.0 0.00 0.72 0.02 94 1013.6
20200406102443 68 143 0.0 0.0 0.00 0.72 0.02 94 1013.7
20200406101944 67 143 0.0 0.0 0.00 0.72 0.02 94 1013.7
20200406101443 67 143 0.0 0.0 0.00 0.72 0.02 94 1013.8
20200406100944 67 68 0.0 3.0 0.00 0.72 0.02 94 1013.6
20200406100442 67 68 1.0 3.0 0.00 0.72 0.02 94 1013.5
20200406095941 67 82 0.0 3.0 0.00 0.72 0.02 95 1013.6
20200406095441 67 72 0.0 2.0 0.00 0.72 0.02 95 1013.5
20200406094943 67 57 0.0 4.0 0.00 0.72 0.02 95 1013.6
20200406094442 67 70 0.0 4.0 0.00 0.72 0.02 95 1013.6
20200406093940 67 45 0.0 1.0 0.00 0.72 0.02 96 1013.6
20200406093437 67 65 0.0 2.0 0.00 0.72 0.02 96 1013.5
20200406092935 67 35 0.0 2.0 0.00 0.72 0.02 96 1013.5
20200406092435 67 72 0.0 1.0 0.00 0.72 0.02 96 1013.4
20200406091944 67 76 0.0 0.0 0.00 0.72 0.02 96 1013.4
20200406091427 67 76 0.0 1.0 0.00 0.72 0.02 96 1013.5
20200406090927 67 76 0.0 2.0 0.00 0.72 0.02 96 1013.3
20200406090428 67 76 0.0 2.0 0.00 0.72 0.02 96 1013.3
20200406085928 67 92 0.0 2.0 0.00 0.72 0.02 96 1013.4
20200406085427 67 70 0.0 3.0 0.00 0.72 0.02 96 1013.4
20200406084923 67 85 1.0 4.0 0.00 0.72 0.02 96 1013.2
20200406084423 67 122 1.0 4.0 0.00 0.72 0.02 96 1013.1
20200406083924 67 93 0.0 4.0 0.00 0.72 0.02 96 1013.1
20200406083423 67 94 0.0 4.0 0.00 0.72 0.02 96 1013.1
20200406082922 67 57 1.0 6.0 0.00 0.72 0.02 97 1013.1
20200406082423 66 104 1.0 6.0 0.00 0.72 0.02 97 1013.1
20200406081922 66 60 0.0 5.0 0.00 0.72 0.02 97 1013.0
20200406081420 66 84 0.0 1.0 0.00 0.72 0.02 97 1013.0
20200406080920 65 89 0.0 1.0 0.00 0.72 0.02 97 1013.1
20200406080419 65 108 0.0 2.0 0.00 0.72 0.02 97 1013.2
20200406075917 65 108 0.0 2.0 0.00 0.72 0.02 96 1013.2
20200406075415 66 53 0.0 0.0 0.00 0.72 0.02 97 1013.3
20200406074914 66 53 0.0 0.0 0.00 0.72 0.02 97 1013.2
20200406074411 65 53 0.0 0.0 0.00 0.72 0.02 97 1013.3
20200406073907 65 53 0.0 0.0 0.00 0.72 0.02 96 1013.3
20200406073406 65 43 0.0 0.0 0.00 0.72 0.02 96 1013.4
20200406072906 66 288 0.0 0.0 0.00 0.72 0.02 97 1013.4
20200406072403 66 288 0.0 0.0 0.00 0.72 0.02 97 1013.3
20200406071905 66 288 0.0 0.0 0.00 0.72 0.02 97 1013.4
20200406071359 65 288 0.0 1.0 0.00 0.72 0.02 97 1013.5
20200406070859 65 352 0.0 2.0 0.00 0.72 0.02 97 1013.4
20200406070359 66 130 0.0 2.0 0.00 0.72 0.02 97 1013.4
20200406065859 66 84 0.0 2.0 0.00 0.72 0.02 97 1013.6
20200406065358 66 75 0.0 1.0 0.00 0.72 0.02 97 1013.5
20200406064856 66 85 0.0 2.0 0.00 0.72 0.02 97 1013.5
20200406064355 66 82 0.0 2.0 0.00 0.72 0.02 97 1013.6
20200406063853 66 68 0.0 3.0 0.00 0.72 0.02 97 1013.7
20200406063353 66 84 0.0 3.0 0.00 0.72 0.02 97 1013.7
20200406062853 66 96 0.0 0.0 0.00 0.72 0.02 97 1013.8
20200406062352 66 96 0.0 2.0 0.00 0.72 0.02 97 1013.7
20200406061851 66 129 0.0 2.0 0.00 0.72 0.02 97 1013.7
20200406061345 66 98 0.0 1.0 0.00 0.72 0.02 97 1013.8
20200406060843 66 115 0.0 2.0 0.00 0.72 0.02 97 1013.7
20200406060428 66 68 0.0 2.0 0.00 0.72 0.02 97 1013.8
20200406055841 66 100 0.0 1.0 0.00 0.72 0.02 97 1013.7
20200406055338 65 81 0.0 2.0 0.00 0.72 0.02 97 1013.9
20200406054835 65 95 0.0 3.0 0.00 0.72 0.02 97 1014.0
20200406054334 66 103 0.0 3.0 0.01 0.72 0.02 97 1013.9
20200406053836 66 145 1.0 4.0 0.01 0.72 0.02 97 1013.9
20200406053335 66 94 2.0 6.0 0.01 0.72 0.02 97 1014.0
20200406052833 66 149 1.0 6.0 0.01 0.72 0.02 97 1014.0
20200406052334 66 83 1.0 7.0 0.01 0.72 0.02 97 1014.1
20200406051827 66 149 2.0 7.0 0.01 0.72 0.02 97 1014.0
20200406051327 66 65 2.0 6.0 0.02 0.72 0.02 97 1014.0
20200406050827 66 46 1.0 5.0 0.02 0.72 0.02 97 1014.1
20200406050327 66 78 2.0 8.0 0.02 0.72 0.02 97 1014.4
20200406045828 66 68 2.0 8.0 0.02 0.72 0.02 97 1014.4
20200406045326 66 79 2.0 8.0 0.02 0.72 0.02 97 1014.4
20200406044823 66 74 2.0 8.0 0.02 0.72 0.02 97 1014.4
20200406044321 66 61 2.0 6.0 0.01 0.71 0.01 97 1014.5
20200406043822 66 62 2.0 6.0 0.01 0.71 0.01 97 1014.5
20200406043321 66 59 3.0 8.0 0.01 0.71 0.01 97 1014.4
20200406042822 66 69 3.0 9.0 0.01 0.71 0.01 97 1014.6
20200406042321 65 110 3.0 9.0 0.02 0.71 0.01 97 1014.7
20200406041817 66 62 2.0 9.0 0.02 0.71 0.01 97 1014.7
20200406041317 66 97 2.0 10.0 0.01 0.70 0.01 97 1014.7
20200406040817 66 66 3.0 10.0 0.01 0.70 0.00 97 1014.8
20200406040316 66 113 3.0 8.0 0.02 0.70 0.00 97 1014.7
20200406035817 66 97 5.0 13.0 0.03 0.70 0.70 97 1014.7
20200406035317 66 81 6.0 16.0 0.03 0.70 0.70 97 1014.8
20200406034818 66 61 5.0 16.0 0.04 0.70 0.70 97 1014.8
20200406034314 66 49 2.0 9.0 0.04 0.70 0.70 98 1014.8
20200406033815 66 53 1.0 7.0 0.04 0.70 0.70 97 1014.7
20200406033315 66 72 1.0 4.0 0.05 0.70 0.70 97 1014.7
20200406032814 66 82 1.0 3.0 0.05 0.70 0.70 97 1014.8
20200406032315 66 106 1.0 3.0 0.04 0.69 0.70 97 1014.7
20200406031816 66 68 1.0 3.0 0.05 0.69 0.69 97 1014.6
20200406031314 66 58 0.0 2.0 0.05 0.69 0.69 97 1014.6
20200406030809 66 130 0.0 0.0 0.05 0.69 0.69 97 1014.7
20200406030307 66 130 0.0 0.0 0.04 0.68 0.68 97 1014.8
20200406025805 66 130 0.0 0.0 0.03 0.67 0.67 97 1014.8
20200406025304 66 130 0.0 0.0 0.03 0.67 0.67 97 1014.9
20200406024801 66 130 0.0 0.0 0.02 0.66 0.66 97 1014.7
20200406024257 66 130 0.0 0.0 0.02 0.66 0.66 97 1014.9
20200406023756 66 130 0.0 0.0 0.03 0.66 0.66 97 1014.7
20200406023256 66 130 0.0 0.0 0.02 0.65 0.65 97 1014.7
20200406022757 66 130 0.0 0.0 0.02 0.65 0.65 97 1014.7
20200406022257 66 130 0.0 0.0 0.02 0.65 0.65 97 1014.7
20200406021754 66 130 0.0 0.0 0.01 0.64 0.64 97 1014.6
20200406021256 65 130 0.0 0.0 0.01 0.64 0.64 97 1014.6
20200406020751 65 130 0.0 1.0 0.02 0.64 0.64 97 1014.6
20200406020250 65 92 0.0 4.0 0.03 0.64 0.64 97 1014.5
20200406015751 65 79 0.0 4.0 0.04 0.64 0.64 97 1014.5
20200406015250 65 67 0.0 2.0 0.04 0.64 0.64 97 1014.4
20200406014751 65 73 0.0 3.0 0.04 0.64 0.64 97 1014.4
20200406014252 65 65 1.0 3.0 0.05 0.64 0.64 97 1014.4
20200406013747 65 60 1.0 3.0 0.04 0.63 0.63 97 1014.3
20200406013247 65 77 1.0 3.0 0.05 0.63 0.63 97 1014.1
20200406012747 65 59 1.0 4.0 0.05 0.63 0.63 97 1014.1
20200406012247 65 79 1.0 4.0 0.06 0.63 0.63 97 1014.2
20200406011746 65 91 1.0 4.0 0.08 0.63 0.63 97 1014.2
20200406011248 65 69 1.0 4.0 0.09 0.63 0.63 97 1014.1
20200406010747 65 75 1.0 4.0 0.09 0.62 0.63 97 1014.1
20200406010247 65 82 1.0 3.0 0.08 0.61 0.62 97 1014.0
20200406005747 65 68 1.0 3.0 0.08 0.60 0.61 97 1014.1
20200406005246 65 58 1.0 3.0 0.09 0.60 0.60 97 1014.0
20200406004745 65 79 1.0 3.0 0.10 0.60 0.60 97 1013.9
20200406004242 65 57 2.0 5.0 0.10 0.59 0.59 97 1013.8
20200406003743 65 72 2.0 6.0 0.11 0.59 0.59 97 1013.7
20200406003241 65 68 2.0 6.0 0.11 0.58 0.58 97 1013.8
20200406002741 65 74 2.0 5.0 0.12 0.58 0.58 97 1013.7
20200406002235 65 63 3.0 7.0 0.11 0.56 0.57 97 1013.7
20200406001733 65 67 2.0 7.0 0.11 0.55 0.56 97 1013.7
20200406001233 65 110 2.0 7.0 0.12 0.54 0.54 97 1013.8
20200406000732 65 58 3.0 6.0 0.12 0.53 0.53 97 1013.7
20200406000234 65 60 2.0 7.0 0.14 0.53 0.53 97 1013.5
20200405235730 65 69 2.0 7.0 0.14 0.52 0.52 97 1013.6
20200405235226 64 20 1.0 5.0 0.14 0.51 0.51 97 1013.6
20200405234725 64 56 2.0 5.0 0.14 0.50 0.50 97 1013.5
20200405234226 64 100 2.0 7.0 0.13 0.49 0.50 97 1013.5
20200405233724 64 351 2.0 9.0 0.13 0.48 0.48 96 1013.5
20200405233225 64 75 2.0 9.0 0.12 0.47 0.47 96 1013.6
20200405232722 64 60 3.0 6.0 0.12 0.46 0.46 96 1013.6
20200405232219 64 43 3.0 11.0 0.11 0.45 0.45 96 1013.5
20200405231720 64 29 3.0 11.0 0.11 0.44 0.45 96 1013.5
20200405231218 64 64 3.0 7.0 0.09 0.42 0.43 96 1013.5
20200405230718 64 46 3.0 8.0 0.10 0.41 0.41 96 1013.6
20200405230218 64 25 2.0 9.0 0.09 0.39 0.39 96 1013.5
20200405225718 64 114 2.0 9.0 0.09 0.38 0.38 96 1013.5
20200405225218 64 58 3.0 10.0 0.09 0.37 0.37 96 1013.5
20200405224714 64 56 3.0 10.0 0.08 0.36 0.36 96 1013.5
20200405224211 64 25 3.0 8.0 0.09 0.36 0.36 96 1013.4
20200405223711 64 46 3.0 9.0 0.08 0.35 0.35 96 1013.4
20200405223210 64 63 3.0 9.0 0.09 0.35 0.35 96 1013.5
20200405222711 65 61 2.0 7.0 0.09 0.34 0.34 96 1013.6
20200405222209 65 37 1.0 7.0 0.10 0.34 0.34 96 1013.6
20200405221734 65 25 1.0 6.0 0.09 0.33 0.33 96 1013.4